Marshall, MI

9:46 PM EDT on October 19, 2017 (GMT -0400)
Brooks

Weather History for KRMY - September, 2013

Change the Weather History Date:

Sunday, September 22, 2013

  Actual Average (KBTL) Record (KBTL)
Temperature  
Mean Temperature 49 °F -  
Max Temperature 54 °F 68 °F 94 °F (2017)
Min Temperature 42 °F 47 °F 36 °F (1999)
Degree Days  
Heating Degree Days 16    
Moisture  
Dew Point 42 °F    
Average Humidity 70    
Maximum Humidity 92    
Minimum Humidity 62    
Precipitation  
Precipitation 0.00 in - - ()
Sea Level Pressure  
Sea Level Pressure 30.01 in    
Wind  
Wind Speed 2 mph (North)    
Max Wind Speed 7 mph    
Max Gust Speed -    
Visibility 10 miles    
Events      
Averages and records for this station are not official NWS values.
T = Trace of Precipitation, MM = Missing Value Source: NWS Daily Summary

Daily Weather History Graph

Daily Weather History Graph

Search for Another Location

Airport or City:

Trip Planner

Search our weather history database for the weather conditions in past years. The results will help you decide how hot, cold, wet, or windy it might be!

Date:

Astronomy

Sep. 22, 2013 Rise Set
Actual Time 7:27 AM EDT 7:36 PM EDT
Civil Twilight 6:59 AM EDT 8:04 PM EDT
Nautical Twilight 6:26 AM EDT 8:37 PM EDT
Astronomical Twilight 5:53 AM EDT 9:10 PM EDT
Moon 9:21 PM EDT (9/22) 10:51 AM EDT (9/22)
Length of Visible Light 13h 05m
Length of Day
12h 09m
Waning Gibbous, 89% of the Moon is Illuminated
Sep 22
Waning Gibbous
Sep 26
Last Quarter
Oct 4
New
Oct 11
First Quarter
Oct 18
Full

Hourly Weather History & Observations

Time (EDT) Temp. Dew Point Humidity Pressure Visibility Wind Dir Wind Speed Gust Speed Precip Events Conditions
12:13 AM 54.0 °F 46.9 °F 77% 29.90 in 10.0 mi NNW 3.5 mph - N/A   Overcast
12:34 AM 54.0 °F 45.5 °F 73% 29.91 in 10.0 mi North 4.6 mph - N/A   Overcast
12:54 AM 53.8 °F 45.0 °F 72% 29.92 in 10.0 mi Calm Calm - N/A   Overcast
1:13 AM 53.6 °F 45.0 °F 73% 29.92 in 10.0 mi North 4.6 mph - N/A   Overcast
1:34 AM 53.2 °F 44.2 °F 72% 29.92 in 10.0 mi Calm Calm - N/A   Overcast
1:54 AM 53.1 °F 43.3 °F 70% 29.93 in 10.0 mi North 3.5 mph - N/A   Overcast
2:14 AM 52.7 °F 42.8 °F 69% 29.94 in 10.0 mi Calm Calm - N/A   Overcast
2:34 AM 52.5 °F 42.3 °F 68% 29.94 in 10.0 mi Calm Calm - N/A   Overcast
2:54 AM 52.3 °F 42.1 °F 68% 29.94 in 10.0 mi Calm Calm - N/A   Overcast
3:13 AM 52.5 °F 41.2 °F 65% 29.94 in 10.0 mi Calm Calm - N/A   Overcast
3:34 AM 52.2 °F 41.2 °F 66% 29.93 in 10.0 mi Calm Calm - N/A   Overcast
3:54 AM 52.2 °F 40.5 °F 64% 29.94 in 10.0 mi Calm Calm - N/A   Overcast
4:14 AM 52.0 °F 39.9 °F 63% 29.94 in 10.0 mi Calm Calm - N/A   Overcast
4:34 AM 51.4 °F 39.4 °F 63% 29.95 in 10.0 mi Calm Calm - N/A   Overcast
4:53 AM 50.5 °F 39.4 °F 66% 29.95 in 10.0 mi Calm Calm - N/A   Mostly Cloudy
5:14 AM 49.8 °F 39.9 °F 69% 29.95 in 10.0 mi Calm Calm - N/A   Mostly Cloudy
5:34 AM 49.5 °F 40.8 °F 72% 29.95 in 10.0 mi Calm Calm - N/A   Overcast
5:53 AM 49.3 °F 41.9 °F 76% 29.96 in 10.0 mi Calm Calm - N/A   Overcast
6:14 AM 49.6 °F 41.5 °F 74% 29.96 in 10.0 mi Calm Calm - N/A   Overcast
6:34 AM 48.9 °F 41.5 °F 76% 29.96 in 10.0 mi Calm Calm - N/A   Mostly Cloudy
6:53 AM 48.7 °F 42.4 °F 79% 29.97 in 10.0 mi Calm Calm - N/A   Overcast
7:14 AM 49.5 °F 43.7 °F 81% 29.97 in 10.0 mi Calm Calm - N/A   Overcast
7:34 AM 49.3 °F 43.9 °F 82% 29.98 in 10.0 mi Calm Calm - N/A   Overcast
7:53 AM 48.4 °F 43.7 °F 84% 29.99 in 10.0 mi Calm Calm - N/A   Mostly Cloudy
8:14 AM 48.6 °F 43.9 °F 84% 29.99 in 10.0 mi Calm Calm - N/A   Clear
8:34 AM 49.3 °F 44.2 °F 83% 30.00 in 10.0 mi Calm Calm - N/A   Clear
8:53 AM 50.0 °F 44.4 °F 81% 30.01 in 10.0 mi NNE 3.5 mph - N/A   Clear
9:14 AM 50.4 °F 43.2 °F 76% 30.02 in 10.0 mi North 4.6 mph - N/A   Clear
9:34 AM 51.1 °F 43.2 °F 74% 30.02 in 10.0 mi NNE 3.5 mph - N/A   Clear
9:53 AM 51.4 °F 42.3 °F 71% 30.03 in 10.0 mi Calm Calm - N/A   Clear
10:14 AM 53.1 °F 41.7 °F 65% 30.03 in 10.0 mi North 4.6 mph - N/A   Mostly Cloudy
10:34 AM 52.2 °F 40.5 °F 64% 30.04 in 10.0 mi NW 4.6 mph - N/A   Overcast
10:53 AM 53.1 °F 40.5 °F 62% 30.04 in 10.0 mi North 4.6 mph - N/A   Overcast
11:14 AM 53.1 °F 40.5 °F 62% 30.04 in 10.0 mi NNE 4.6 mph - N/A   Overcast
11:34 AM 52.7 °F 40.6 °F 64% 30.04 in 10.0 mi North 6.9 mph - N/A   Overcast
11:53 AM 53.2 °F 40.5 °F 62% 30.05 in 10.0 mi WNW 4.6 mph - N/A   Overcast
12:14 PM 53.1 °F 40.6 °F 63% 30.05 in 10.0 mi North 5.8 mph - N/A   Overcast
12:34 PM 53.2 °F 41.0 °F 63% 30.05 in 10.0 mi NW 5.8 mph - N/A   Overcast
12:53 PM 53.4 °F 41.0 °F 63% 30.05 in 10.0 mi NNE 4.6 mph - N/A   Overcast
1:14 PM 52.7 °F 41.0 °F 64% 30.06 in 10.0 mi NNW 4.6 mph - N/A   Overcast
1:33 PM 53.4 °F 41.0 °F 63% 30.05 in 10.0 mi WNW 6.9 mph - N/A   Overcast
1:54 PM 53.4 °F 41.2 °F 63% 30.05 in 10.0 mi WNW 3.5 mph - N/A   Overcast
2:14 PM 53.6 °F 40.8 °F 62% 30.04 in 10.0 mi East 3.5 mph - N/A   Overcast
2:33 PM 54.0 °F 41.0 °F 62% 30.04 in 10.0 mi NE 3.5 mph - N/A   Overcast
2:54 PM 54.3 °F 41.9 °F 63% 30.03 in 10.0 mi North 3.5 mph - N/A   Overcast
3:14 PM 54.7 °F 41.7 °F 62% 30.03 in 10.0 mi East 3.5 mph - N/A   Overcast
3:33 PM 54.1 °F 41.5 °F 62% 30.03 in 10.0 mi NW 3.5 mph - N/A   Overcast
3:54 PM 54.5 °F 42.3 °F 63% 30.03 in 10.0 mi Calm Calm - N/A   Overcast
4:14 PM 54.9 °F 42.3 °F 63% 30.03 in 10.0 mi NW 4.6 mph - N/A   Overcast
4:33 PM 54.7 °F 41.9 °F 62% 30.03 in 10.0 mi NNE 3.5 mph - N/A   Overcast
4:54 PM 54.5 °F 42.3 °F 63% 30.03 in 10.0 mi Calm Calm - N/A   Overcast
5:14 PM 54.0 °F 42.1 °F 64% 30.03 in 10.0 mi NW 3.5 mph - N/A   Overcast
5:33 PM 53.6 °F 41.7 °F 64% 30.03 in 10.0 mi Calm Calm - N/A   Overcast
5:54 PM 53.6 °F 41.7 °F 64% 30.03 in 10.0 mi Calm Calm - N/A   Overcast
6:14 PM 53.2 °F 42.4 °F 67% 30.04 in 10.0 mi Calm Calm - N/A   Overcast
6:33 PM 53.1 °F 42.3 °F 67% 30.04 in 10.0 mi NE 3.5 mph - N/A   Overcast
6:54 PM 52.5 °F 41.7 °F 67% 30.04 in 10.0 mi Calm Calm - N/A   Overcast
7:13 PM 52.3 °F 41.7 °F 67% 30.05 in 10.0 mi NE 5.8 mph - N/A   Overcast
7:34 PM 52.2 °F 42.4 °F 69% 30.04 in 10.0 mi Calm Calm - N/A   Overcast
7:54 PM 52.0 °F 42.8 °F 71% 30.04 in 10.0 mi Calm Calm - N/A   Overcast
8:13 PM 51.6 °F 42.4 °F 71% 30.05 in 10.0 mi Calm Calm - N/A   Overcast
8:33 PM 51.4 °F 42.4 °F 71% 30.06 in 10.0 mi Calm Calm - N/A   Overcast
8:54 PM 51.3 °F 43.0 °F 73% 30.07 in 10.0 mi Calm Calm - N/A   Overcast
9:13 PM 50.7 °F 42.8 °F 74% 30.07 in 10.0 mi Calm Calm - N/A   Overcast
9:34 PM 50.5 °F 42.1 °F 73% 30.07 in 10.0 mi ENE 3.5 mph - N/A   Overcast
9:54 PM 50.0 °F 41.5 °F 73% 30.07 in 10.0 mi Calm Calm - N/A   Mostly Cloudy
10:13 PM 49.3 °F 41.4 °F 74% 30.07 in 10.0 mi Calm Calm - N/A   Overcast
10:34 PM 46.9 °F 41.7 °F 82% 30.07 in 10.0 mi Calm Calm - N/A   Scattered Clouds
10:54 PM 45.3 °F 41.2 °F 85% 30.07 in 10.0 mi Calm Calm - N/A   Clear
11:13 PM 44.2 °F 41.2 °F 89% 30.08 in 10.0 mi Calm Calm - N/A   Clear
11:34 PM 44.1 °F 41.4 °F 90% 30.08 in 10.0 mi Calm Calm - N/A   Clear
11:53 PM 42.1 °F 39.9 °F 92% 30.08 in 10.0 mi Calm Calm - N/A   Clear